Guthrie, OK

3:04 PM CDT on April 30, 2017 (GMT -0500)
Guthrie Municipal

Weather History for KGOK - October, 2012

Change the Weather History Date:

Thursday, October 4, 2012

  Actual Average Record
Temperature  
Mean Temperature 64 °F -  
Max Temperature 70 °F 82 °F 99 °F (1951)
Min Temperature 57 °F 54 °F 37 °F (2014)
Degree Days  
Heating Degree Days 1    
Growing Degree Days 14 (Base 50)    
Moisture  
Dew Point 48 °F    
Average Humidity 56    
Maximum Humidity 72    
Minimum Humidity 49    
Precipitation  
Precipitation 0.00 in - - ()
Sea Level Pressure  
Sea Level Pressure 30.12 in    
Wind  
Wind Speed 8 mph (NE)    
Max Wind Speed 12 mph    
Max Gust Speed 20 mph    
Visibility 10 miles    
Events      
Averages and records for this station are not official NWS values.
T = Trace of Precipitation, MM = Missing Value Source: NWS Daily Summary

Daily Weather History Graph

Daily Weather History Graph

Search for Another Location

Airport or City:

Trip Planner

Search our weather history database for the weather conditions in past years. The results will help you decide how hot, cold, wet, or windy it might be!

Date:

Astronomy

Oct. 04, 2012 Rise Set
Actual Time 7:27 AM CDT 7:08 PM CDT
Civil Twilight 7:01 AM CDT 7:33 PM CDT
Nautical Twilight 6:32 AM CDT 8:03 PM CDT
Astronomical Twilight 6:02 AM CDT 8:33 PM CDT
Moon 9:53 PM CDT (10/4) 11:37 AM CDT (10/4)
Length of Visible Light 12h 31m
Length of Day
11h 40m
Waning Gibbous, 82% of the Moon is Illuminated
Oct 4
Waning Gibbous
Oct 8
Last Quarter
Oct 15
New
Oct 21
First Quarter
Oct 29
Full

Hourly Weather History & Observations

Time (CDT) Temp. Dew Point Humidity Pressure Visibility Wind Dir Wind Speed Gust Speed Precip Events Conditions
12:53 AM 68.0 °F 50.0 °F 52% 29.95 in 10.0 mi South 11.5 mph - N/A   Clear
1:53 AM 69.1 °F 50.0 °F 51% 29.95 in 10.0 mi South 11.5 mph - N/A   Clear
2:53 AM 69.1 °F 51.1 °F 53% 29.97 in 10.0 mi South 11.5 mph - N/A   Clear
3:53 AM 68.0 °F 50.0 °F 52% 29.97 in 10.0 mi South 10.4 mph - N/A   Clear
4:53 AM 66.9 °F 51.1 °F 57% 29.99 in 10.0 mi South 11.5 mph - N/A   Clear
5:53 AM 64.9 °F 52.0 °F 63% 30.04 in 10.0 mi Calm Calm - N/A   Clear
6:53 AM 62.1 °F 53.1 °F 72% 30.05 in 10.0 mi SSE 5.8 mph - N/A   Clear
7:53 AM 63.0 °F 53.1 °F 70% 30.10 in 10.0 mi North 4.6 mph - N/A   Clear
8:53 AM 66.0 °F 53.1 °F 63% 30.12 in 10.0 mi ENE 3.5 mph - N/A   Partly Cloudy
9:53 AM 69.1 °F 54.0 °F 58% 30.12 in 10.0 mi ESE 3.5 mph - N/A   Overcast
10:53 AM 66.0 °F 53.1 °F 63% 30.15 in 10.0 mi NNW 9.2 mph 18.4 mph N/A   Overcast
11:53 AM 63.0 °F 46.9 °F 56% 30.18 in 10.0 mi North 11.5 mph 19.6 mph N/A   Overcast
12:53 PM 64.0 °F 46.9 °F 54% 30.18 in 10.0 mi Variable 5.8 mph 16.1 mph N/A   Overcast
1:53 PM 64.9 °F 46.9 °F 52% 30.16 in 10.0 mi North 8.1 mph - N/A   Overcast
2:53 PM 64.9 °F 46.9 °F 52% 30.15 in 10.0 mi Variable 4.6 mph - N/A   Overcast
3:53 PM 66.0 °F 46.9 °F 50% 30.15 in 10.0 mi North 6.9 mph - N/A   Overcast
4:22 PM 66.2 °F 46.4 °F 49% 30.16 in 10.0 mi North 4.6 mph - N/A   Overcast
4:53 PM 66.0 °F 46.9 °F 50% 30.15 in 10.0 mi NNE 5.8 mph - N/A   Overcast
5:53 PM 66.0 °F 48.0 °F 52% 30.14 in 10.0 mi Variable 4.6 mph - N/A   Overcast
6:53 PM 64.9 °F 48.0 °F 54% 30.15 in 10.0 mi North 8.1 mph - N/A   Overcast
7:53 PM 64.0 °F 46.9 °F 54% 30.16 in 10.0 mi NNE 6.9 mph - N/A   Overcast
8:53 PM 62.1 °F 44.1 °F 52% 30.17 in 10.0 mi NNE 8.1 mph - N/A   Overcast
9:31 PM 60.8 °F 42.8 °F 52% 30.17 in 10.0 mi NNE 6.9 mph - N/A   Overcast
9:40 PM 60.8 °F 42.8 °F 52% 30.18 in 10.0 mi North 6.9 mph - N/A   Overcast
9:53 PM 59.0 °F 43.0 °F 55% 30.17 in 10.0 mi North 4.6 mph - N/A   Overcast
10:53 PM 59.0 °F 44.1 °F 58% 30.18 in 10.0 mi NNE 5.8 mph - N/A   Overcast
11:24 PM 59.0 °F 44.6 °F 59% 30.19 in 10.0 mi NNE 6.9 mph - N/A   Overcast
11:53 PM 57.9 °F 44.1 °F 60% 30.18 in 10.0 mi NNE 6.9 mph - N/A   Overcast